Location: Newark
(30.3369°N, 81.6614°W)
Time: 16:49:43
(UTC+00:00)

ISS - Visible Passes

Search period start: 01 October 2020 00:00
Search period end: 11 October 2020 00:00
Orbit: 419 x 421 km, 51.6° (Epoch: 02 October)

Date Brightness Start Highest point End Pass type
(mag) Time Alt. Az. Time Alt. Az. Time Alt. Az.
05 Oct -1.5 00:36:27 10° N 00:37:38 16° N 00:37:38 16° N visible
05 Oct -1.5 23:50:04 10° N 23:51:28 12° NNE 23:52:30 11° NE visible
06 Oct -0.4 01:25:14 10° NW 01:25:29 12° NW 01:25:29 12° NW visible
07 Oct -3.0 00:37:56 10° NW 00:40:29 46° NNW 00:40:29 46° NNW visible
07 Oct -2.9 23:50:48 10° NNW 23:53:54 33° NE 23:55:38 20° E visible
08 Oct -0.2 01:28:27 10° W 01:28:38 11° W 01:28:38 11° W visible
09 Oct -2.0 00:40:19 10° WNW 00:43:17 29° SW 00:44:00 26° SSW visible
09 Oct -3.2 23:52:42 10° NW 23:56:00 59° SW 23:59:18 10° SSE visible
